Time,TemperatureF,DewpointF,PressureIn,WindDirection,WindDirectionDegrees,WindSpeedMPH,WindSpeedGustMPH,Humidity,HourlyPrecipIn,Conditions,Clouds,dailyrainin,SoftwareType,DateUTC
2013-05-28 00:00:00,65.6,57.5,30.18,North,360,4.0,5.0,75,0.00,,---,0.00,VWS V14.01,2013-05-28 04:00:00,
2013-05-28 00:01:00,65.6,57.5,30.18,North,360,4.0,5.0,75,0.00,,---,0.00,VWS V14.01,2013-05-28 04:01:00,
2013-05-28 00:02:00,65.6,57.5,30.18,North,360,4.0,5.0,75,0.00,,---,0.00,VWS V14.01,2013-05-28 04:02:00,
2013-05-28 00:08:00,65.6,57.5,30.18,North,360,6.0,6.0,75,0.00,,---,0.00,VWS V14.01,2013-05-28 04:08:00,
2013-05-28 00:13:00,66.0,57.9,30.18,North,360,5.0,9.0,75,0.00,,---,0.00,VWS V14.01,2013-05-28 04:13:00,
2013-05-28 00:18:00,66.3,58.2,30.18,North,360,6.0,9.0,75,0.00,,---,0.00,VWS V14.01,2013-05-28 04:18:00,
2013-05-28 00:23:00,66.6,58.4,30.18,North,360,8.0,10.0,75,0.00,,---,0.00,VWS V14.01,2013-05-28 04:23:00,
2013-05-28 00:28:00,66.6,58.4,30.18,North,360,7.0,11.0,75,0.00,,---,0.00,VWS V14.01,2013-05-28 04:28:00,
2013-05-28 00:33:00,66.6,58.4,30.18,North,360,8.0,11.0,75,0.00,,---,0.00,VWS V14.01,2013-05-28 04:33:00,
2013-05-28 00:38:00,66.4,58.6,30.17,North,360,6.0,11.0,76,0.00,,---,0.00,VWS V14.01,2013-05-28 04:38:00,
2013-05-28 00:43:00,66.2,58.4,30.17,North,360,6.0,11.0,76,0.00,,---,0.00,VWS V14.01,2013-05-28 04:43:00,
2013-05-28 00:48:00,66.1,59.0,30.17,North,360,10.0,13.0,78,0.00,,---,0.00,VWS V14.01,2013-05-28 04:48:00,
2013-05-28 00:53:00,66.1,59.4,30.17,North,360,12.0,14.0,79,0.00,,---,0.00,VWS V14.01,2013-05-28 04:53:00,
2013-05-28 00:58:00,65.9,59.6,30.17,North,360,10.0,14.0,80,0.00,,---,0.00,VWS V14.01,2013-05-28 04:58:00,
2013-05-28 01:03:00,65.7,59.7,30.17,North,360,7.0,13.0,81,0.00,,---,0.00,VWS V14.01,2013-05-28 05:03:00,
2013-05-28 01:09:00,65.5,60.2,30.17,North,360,7.0,13.0,83,0.00,,---,0.00,VWS V14.01,2013-05-28 05:09:00,
2013-05-28 01:14:00,65.2,59.6,30.17,North,360,7.0,13.0,82,0.00,,---,0.00,VWS V14.01,2013-05-28 05:14:00,
2013-05-28 01:19:00,65.0,59.7,30.17,North,360,9.0,13.0,83,0.00,,---,0.00,VWS V14.01,2013-05-28 05:19:00,
2013-05-28 01:24:00,64.9,60.0,30.17,North,360,9.0,13.0,84,0.00,,---,0.00,VWS V14.01,2013-05-28 05:24:00,
2013-05-28 01:29:00,64.9,60.0,30.17,North,360,7.0,13.0,84,0.00,,---,0.00,VWS V14.01,2013-05-28 05:29:00,
2013-05-28 01:34:00,64.7,60.1,30.17,North,360,7.0,13.0,85,0.00,,---,0.00,VWS V14.01,2013-05-28 05:34:00,
2013-05-28 01:39:00,64.7,60.4,30.17,North,360,11.0,13.0,86,0.00,,---,0.00,VWS V14.01,2013-05-28 05:39:00,
2013-05-28 01:44:00,64.6,60.3,30.17,North,360,6.0,13.0,86,0.00,,---,0.00,VWS V14.01,2013-05-28 05:44:00,
2013-05-28 01:49:00,64.5,60.2,30.17,North,360,9.0,13.0,86,0.00,,---,0.00,VWS V14.01,2013-05-28 05:49:00,
2013-05-28 01:54:00,64.4,60.5,30.16,North,360,7.0,13.0,87,0.00,,---,0.00,VWS V14.01,2013-05-28 05:54:00,
2013-05-28 01:59:00,64.4,60.8,30.16,North,360,11.0,14.0,88,0.00,,---,0.00,VWS V14.01,2013-05-28 05:59:00,
2013-05-28 02:04:00,64.4,60.8,30.16,North,360,10.0,12.0,88,0.00,,---,0.00,VWS V14.01,2013-05-28 06:04:00,
2013-05-28 02:09:00,64.5,61.2,30.16,North,360,7.0,14.0,89,0.00,,---,0.00,VWS V14.01,2013-05-28 06:09:00,
2013-05-28 02:15:00,64.5,61.2,30.16,North,360,8.0,14.0,89,0.00,,---,0.00,VWS V14.01,2013-05-28 06:15:00,
2013-05-28 02:20:00,64.6,61.3,30.15,North,360,8.0,14.0,89,0.00,,---,0.00,VWS V14.01,2013-05-28 06:20:00,
2013-05-28 02:25:00,64.6,61.6,30.16,North,360,9.0,14.0,90,0.00,,---,0.00,VWS V14.01,2013-05-28 06:25:00,
2013-05-28 02:30:00,64.7,61.7,30.16,North,360,12.0,14.0,90,0.00,,---,0.00,VWS V14.01,2013-05-28 06:30:00,
2013-05-28 02:35:00,64.7,61.7,30.16,North,360,8.0,14.0,90,0.00,,---,0.00,VWS V14.01,2013-05-28 06:35:00,
2013-05-28 02:40:00,64.8,61.8,30.16,North,360,6.0,15.0,90,0.00,,---,0.00,VWS V14.01,2013-05-28 06:40:00,
2013-05-28 02:45:00,64.8,61.8,30.16,North,360,11.0,15.0,90,0.00,,---,0.00,VWS V14.01,2013-05-28 06:45:00,
2013-05-28 02:50:00,64.8,61.8,30.16,North,360,5.0,15.0,90,0.00,,---,0.00,VWS V14.01,2013-05-28 06:50:00,
2013-05-28 02:55:00,64.9,61.9,30.16,North,360,5.0,15.0,90,0.00,,---,0.00,VWS V14.01,2013-05-28 06:55:00,
2013-05-28 03:00:00,64.9,61.9,30.15,North,360,6.0,15.0,90,0.00,,---,0.00,VWS V14.01,2013-05-28 07:00:00,
2013-05-28 03:05:00,65.0,62.0,30.15,North,360,10.0,11.0,90,0.00,,---,0.00,VWS V14.01,2013-05-28 07:05:00,
2013-05-28 03:10:00,65.1,62.1,30.16,North,360,12.0,15.0,90,0.00,,---,0.00,VWS V14.01,2013-05-28 07:10:00,
2013-05-28 03:15:00,65.2,62.2,30.16,North,360,5.0,15.0,90,0.00,,---,0.00,VWS V14.01,2013-05-28 07:15:00,
2013-05-28 03:20:00,65.3,62.3,30.16,North,360,12.0,15.0,90,0.00,,---,0.00,VWS V14.01,2013-05-28 07:20:00,
2013-05-28 03:25:00,65.3,62.3,30.15,North,360,8.0,15.0,90,0.00,,---,0.00,VWS V14.01,2013-05-28 07:25:00,
2013-05-28 03:30:00,65.3,62.3,30.16,North,360,6.0,15.0,90,0.00,,---,0.00,VWS V14.01,2013-05-28 07:30:00,
2013-05-28 03:36:00,65.2,62.2,30.16,North,360,5.0,15.0,90,0.00,,---,0.00,VWS V14.01,2013-05-28 07:36:00,
2013-05-28 03:41:00,65.2,62.2,30.15,North,360,7.0,15.0,90,0.00,,---,0.00,VWS V14.01,2013-05-28 07:41:00,
2013-05-28 03:46:00,65.2,62.2,30.15,North,360,5.0,15.0,90,0.00,,---,0.00,VWS V14.01,2013-05-28 07:46:00,
2013-05-28 03:51:00,65.1,62.1,30.15,North,360,9.0,15.0,90,0.00,,---,0.00,VWS V14.01,2013-05-28 07:51:00,
2013-05-28 03:56:00,65.0,62.0,30.15,North,360,5.0,15.0,90,0.00,,---,0.00,VWS V14.01,2013-05-28 07:56:00,
2013-05-28 04:01:00,64.9,61.9,30.15,North,360,7.0,15.0,90,0.00,,---,0.00,VWS V14.01,2013-05-28 08:01:00,
2013-05-28 04:06:00,64.9,61.9,30.15,North,360,10.0,13.0,90,0.00,,---,0.00,VWS V14.01,2013-05-28 08:06:00,
2013-05-28 04:11:00,64.8,61.8,30.15,North,360,5.0,14.0,90,0.00,,---,0.00,VWS V14.01,2013-05-28 08:11:00,
2013-05-28 04:16:00,64.8,61.8,30.15,North,360,7.0,14.0,90,0.00,,---,0.00,VWS V14.01,2013-05-28 08:16:00,
2013-05-28 04:21:00,64.7,61.7,30.15,North,360,10.0,14.0,90,0.00,,---,0.00,VWS V14.01,2013-05-28 08:21:00,
2013-05-28 04:26:00,64.7,61.7,30.15,North,360,10.0,14.0,90,0.00,,---,0.00,VWS V14.01,2013-05-28 08:26:00,
2013-05-28 04:31:00,64.7,61.7,30.15,North,360,3.0,15.0,90,0.00,,---,0.00,VWS V14.01,2013-05-28 08:31:00,
2013-05-28 04:36:00,64.6,61.6,30.15,North,360,6.0,15.0,90,0.00,,---,0.00,VWS V14.01,2013-05-28 08:36:00,
2013-05-28 04:42:00,64.5,61.5,30.15,North,360,10.0,15.0,90,0.00,,---,0.00,VWS V14.01,2013-05-28 08:42:00,
2013-05-28 04:47:00,64.5,61.5,30.15,North,360,5.0,15.0,90,0.00,,---,0.00,VWS V14.01,2013-05-28 08:47:00,
2013-05-28 04:52:00,64.4,61.4,30.15,North,360,4.0,15.0,90,0.00,,---,0.00,VWS V14.01,2013-05-28 08:52:00,
2013-05-28 04:57:00,64.4,61.4,30.15,North,360,7.0,15.0,90,0.00,,---,0.00,VWS V14.01,2013-05-28 08:57:00,
2013-05-28 05:02:00,64.3,61.3,30.15,North,360,11.0,15.0,90,0.00,,---,0.00,VWS V14.01,2013-05-28 09:02:00,
2013-05-28 05:07:00,64.2,61.5,30.15,North,360,8.0,12.0,91,0.00,,---,0.00,VWS V14.01,2013-05-28 09:07:00,
2013-05-28 05:12:00,64.1,61.4,30.16,North,360,5.0,12.0,91,0.00,,---,0.00,VWS V14.01,2013-05-28 09:12:00,
2013-05-28 05:17:00,64.0,61.3,30.16,North,360,6.0,12.0,91,0.00,,---,0.00,VWS V14.01,2013-05-28 09:17:00,
2013-05-28 05:22:00,63.9,61.2,30.15,North,360,6.0,12.0,91,0.00,,---,0.00,VWS V14.01,2013-05-28 09:22:00,
2013-05-28 05:27:00,63.8,61.1,30.16,North,360,5.0,12.0,91,0.00,,---,0.00,VWS V14.01,2013-05-28 09:27:00,
2013-05-28 05:32:00,63.8,61.1,30.16,North,360,5.0,12.0,91,0.00,,---,0.00,VWS V14.01,2013-05-28 09:32:00,
2013-05-28 05:37:00,63.7,61.0,30.15,North,360,7.0,12.0,91,0.00,,---,0.00,VWS V14.01,2013-05-28 09:37:00,
2013-05-28 05:43:00,63.7,61.3,30.15,North,360,3.0,12.0,92,0.00,,---,0.00,VWS V14.01,2013-05-28 09:43:00,
2013-05-28 05:48:00,63.6,61.2,30.16,North,360,5.0,12.0,92,0.00,,---,0.00,VWS V14.01,2013-05-28 09:48:00,
2013-05-28 05:53:00,63.5,61.1,30.16,North,360,5.0,12.0,92,0.00,,---,0.00,VWS V14.01,2013-05-28 09:53:00,
2013-05-28 05:58:00,63.4,61.0,30.17,North,360,4.0,12.0,92,0.00,,---,0.00,VWS V14.01,2013-05-28 09:58:00,
2013-05-28 06:03:00,63.2,60.8,30.17,North,360,3.0,3.0,92,0.00,,---,0.00,VWS V14.01,2013-05-28 10:03:00,
2013-05-28 06:08:00,63.2,60.8,30.17,North,360,5.0,9.0,92,0.00,,---,0.00,VWS V14.01,2013-05-28 10:08:00,
2013-05-28 06:13:00,63.1,61.0,30.17,North,360,5.0,11.0,93,0.00,,---,0.00,VWS V14.01,2013-05-28 10:13:00,
2013-05-28 06:18:00,63.0,61.0,30.18,North,360,6.0,11.0,93,0.00,,---,0.00,VWS V14.01,2013-05-28 10:18:00,
2013-05-28 06:23:00,63.0,61.0,30.18,North,360,4.0,11.0,93,0.00,,---,0.00,VWS V14.01,2013-05-28 10:23:00,
2013-05-28 06:28:00,63.0,61.0,30.19,North,360,5.0,11.0,93,0.00,,---,0.00,VWS V14.01,2013-05-28 10:28:00,
2013-05-28 06:33:00,63.0,61.0,30.19,North,360,3.0,11.0,93,0.00,,---,0.00,VWS V14.01,2013-05-28 10:33:00,
2013-05-28 06:38:00,63.1,61.0,30.19,North,360,6.0,11.0,93,0.00,,---,0.00,VWS V14.01,2013-05-28 10:38:00,
2013-05-28 06:43:00,63.1,61.0,30.20,North,360,4.0,11.0,93,0.00,,---,0.00,VWS V14.01,2013-05-28 10:43:00,
2013-05-28 06:48:00,63.1,61.0,30.20,North,360,5.0,11.0,93,0.00,,---,0.00,VWS V14.01,2013-05-28 10:48:00,
2013-05-28 06:53:00,63.2,61.2,30.20,North,360,4.0,11.0,93,0.00,,---,0.00,VWS V14.01,2013-05-28 10:53:00,
2013-05-28 06:58:00,63.2,61.2,30.20,North,360,5.0,11.0,93,0.00,,---,0.00,VWS V14.01,2013-05-28 10:58:00,
2013-05-28 07:03:00,63.3,61.2,30.20,North,360,6.0,7.0,93,0.00,,---,0.00,VWS V14.01,2013-05-28 11:03:00,
2013-05-28 07:08:00,63.4,61.0,30.20,North,360,5.0,7.0,92,0.00,,---,0.00,VWS V14.01,2013-05-28 11:08:00,
2013-05-28 07:13:00,63.5,61.1,30.20,North,360,2.0,7.0,92,0.00,,---,0.00,VWS V14.01,2013-05-28 11:13:00,
2013-05-28 07:19:00,63.6,61.2,30.20,North,360,3.0,7.0,92,0.00,,---,0.00,VWS V14.01,2013-05-28 11:19:00,
2013-05-28 07:24:00,63.6,61.2,30.20,North,360,5.0,7.0,92,0.00,,---,0.00,VWS V14.01,2013-05-28 11:24:00,
2013-05-28 07:29:00,63.7,61.3,30.20,North,360,4.0,9.0,92,0.00,,---,0.00,VWS V14.01,2013-05-28 11:29:00,
2013-05-28 07:34:00,64.0,61.6,30.20,North,360,2.0,9.0,92,0.00,,---,0.00,VWS V14.01,2013-05-28 11:34:00,
2013-05-28 07:39:00,64.1,61.7,30.20,North,360,3.0,9.0,92,0.00,,---,0.00,VWS V14.01,2013-05-28 11:39:00,
2013-05-28 07:44:00,64.1,61.7,30.21,North,360,6.0,9.0,92,0.00,,---,0.00,VWS V14.01,2013-05-28 11:44:00,
2013-05-28 07:49:00,64.2,61.8,30.21,North,360,3.0,11.0,92,0.00,,---,0.00,VWS V14.01,2013-05-28 11:49:00,
2013-05-28 07:54:00,64.6,62.2,30.21,North,360,4.0,11.0,92,0.00,,---,0.00,VWS V14.01,2013-05-28 11:54:00,
2013-05-28 07:59:00,64.7,62.0,30.21,North,360,6.0,11.0,91,0.00,,---,0.00,VWS V14.01,2013-05-28 11:59:00,
2013-05-28 08:04:00,64.9,62.2,30.21,North,360,10.0,10.0,91,0.00,,---,0.00,VWS V14.01,2013-05-28 12:04:00,
2013-05-28 08:09:00,65.2,62.2,30.22,North,360,4.0,15.0,90,0.00,,---,0.00,VWS V14.01,2013-05-28 12:09:00,
2013-05-28 08:14:00,65.7,62.7,30.22,North,360,10.0,15.0,90,0.00,,---,0.00,VWS V14.01,2013-05-28 12:14:00,
2013-05-28 08:19:00,65.9,62.6,30.22,North,360,5.0,15.0,89,0.00,,---,0.00,VWS V14.01,2013-05-28 12:19:00,
2013-05-28 08:25:00,66.2,62.9,30.22,North,360,5.0,15.0,89,0.00,,---,0.00,VWS V14.01,2013-05-28 12:25:00,
2013-05-28 08:30:00,66.3,62.6,30.22,North,360,9.0,15.0,88,0.00,,---,0.00,VWS V14.01,2013-05-28 12:30:00,
2013-05-28 08:35:00,66.4,63.1,30.22,North,360,7.0,15.0,89,0.00,,---,0.00,VWS V14.01,2013-05-28 12:35:00,
2013-05-28 08:40:00,66.8,63.1,30.22,North,360,4.0,15.0,88,0.00,,---,0.00,VWS V14.01,2013-05-28 12:40:00,
2013-05-28 08:45:00,67.1,63.1,30.22,North,360,6.0,15.0,87,0.00,,---,0.00,VWS V14.01,2013-05-28 12:45:00,
2013-05-28 08:50:00,67.6,63.3,30.22,North,360,6.0,15.0,86,0.00,,---,0.00,VWS V14.01,2013-05-28 12:50:00,
2013-05-28 08:55:00,67.9,63.6,30.22,North,360,4.0,15.0,86,0.00,,---,0.00,VWS V14.01,2013-05-28 12:55:00,
2013-05-28 09:00:00,68.2,63.5,30.22,North,360,10.0,15.0,85,0.00,,---,0.00,VWS V14.01,2013-05-28 13:00:00,
2013-05-28 09:05:00,68.2,63.5,30.22,North,360,6.0,11.0,85,0.00,,---,0.00,VWS V14.01,2013-05-28 13:05:00,
2013-05-28 09:10:00,68.2,63.5,30.22,North,360,6.0,13.0,85,0.00,,---,0.00,VWS V14.01,2013-05-28 13:10:00,
2013-05-28 09:15:00,68.2,63.5,30.22,North,360,5.0,13.0,85,0.00,,---,0.00,VWS V14.01,2013-05-28 13:15:00,
2013-05-28 09:20:00,68.6,64.2,30.21,North,360,2.0,13.0,86,0.00,,---,0.00,VWS V14.01,2013-05-28 13:20:00,
2013-05-28 09:25:00,69.4,64.4,30.22,North,360,4.0,13.0,84,0.00,,---,0.00,VWS V14.01,2013-05-28 13:25:00,
2013-05-28 09:30:00,70.2,64.4,30.22,North,360,2.0,13.0,82,0.00,,---,0.00,VWS V14.01,2013-05-28 13:30:00,
2013-05-28 09:36:00,70.9,64.4,30.22,North,360,6.0,13.0,80,0.00,,---,0.00,VWS V14.01,2013-05-28 13:36:00,
2013-05-28 09:41:00,71.2,62.9,30.21,North,360,12.0,16.0,75,0.00,,---,0.00,VWS V14.01,2013-05-28 13:41:00,
2013-05-28 09:46:00,71.2,62.5,30.22,North,360,10.0,16.0,74,0.00,,---,0.00,VWS V14.01,2013-05-28 13:46:00,
2013-05-28 09:51:00,71.3,63.0,30.22,North,360,6.0,16.0,75,0.00,,---,0.00,VWS V14.01,2013-05-28 13:51:00,
2013-05-28 09:56:00,71.7,63.0,30.22,North,360,7.0,16.0,74,0.00,,---,0.00,VWS V14.01,2013-05-28 13:56:00,
2013-05-28 10:01:00,72.3,62.8,30.21,North,360,9.0,16.0,72,0.00,,---,0.00,VWS V14.01,2013-05-28 14:01:00,
2013-05-28 10:06:00,72.5,62.6,30.21,North,360,14.0,16.0,71,0.00,,---,0.00,VWS V14.01,2013-05-28 14:06:00,
2013-05-28 10:11:00,72.9,62.5,30.21,North,360,7.0,16.0,70,0.00,,---,0.00,VWS V14.01,2013-05-28 14:11:00,
2013-05-28 10:16:00,73.5,63.5,30.21,North,360,11.0,16.0,71,0.00,,---,0.00,VWS V14.01,2013-05-28 14:16:00,
2013-05-28 10:21:00,74.0,61.9,30.21,North,360,12.0,17.0,66,0.00,,---,0.00,VWS V14.01,2013-05-28 14:21:00,
2013-05-28 10:26:00,73.8,62.2,30.21,North,360,13.0,18.0,67,0.00,,---,0.00,VWS V14.01,2013-05-28 14:26:00,
2013-05-28 10:31:00,74.1,62.5,30.21,North,360,5.0,18.0,67,0.00,,---,0.00,VWS V14.01,2013-05-28 14:31:00,
2013-05-28 10:36:00,74.8,63.5,30.21,North,360,9.0,18.0,68,0.00,,---,0.00,VWS V14.01,2013-05-28 14:36:00,
2013-05-28 10:41:00,74.7,61.3,30.22,North,360,8.0,18.0,63,0.00,,---,0.00,VWS V14.01,2013-05-28 14:41:00,
2013-05-28 10:46:00,74.6,62.5,30.22,North,360,10.0,18.0,66,0.00,,---,0.00,VWS V14.01,2013-05-28 14:46:00,
2013-05-28 10:52:00,74.8,62.3,30.22,North,360,11.0,18.0,65,0.00,,---,0.00,VWS V14.01,2013-05-28 14:52:00,
2013-05-28 10:57:00,74.9,62.8,30.22,North,360,9.0,18.0,66,0.00,,---,0.00,VWS V14.01,2013-05-28 14:57:00,
2013-05-28 11:02:00,74.9,63.2,30.22,North,360,8.0,18.0,67,0.00,,---,0.00,VWS V14.01,2013-05-28 15:02:00,
2013-05-28 11:07:00,75.1,63.4,30.22,North,360,9.0,15.0,67,0.00,,---,0.00,VWS V14.01,2013-05-28 15:07:00,
2013-05-28 11:12:00,75.2,63.1,30.22,North,360,12.0,16.0,66,0.00,,---,0.00,VWS V14.01,2013-05-28 15:12:00,
2013-05-28 11:17:00,75.1,63.8,30.22,North,360,15.0,16.0,68,0.00,,---,0.00,VWS V14.01,2013-05-28 15:17:00,
2013-05-28 11:22:00,75.1,63.4,30.22,North,360,7.0,17.0,67,0.00,,---,0.00,VWS V14.01,2013-05-28 15:22:00,
2013-05-28 11:27:00,75.2,63.9,30.22,North,360,5.0,17.0,68,0.00,,---,0.00,VWS V14.01,2013-05-28 15:27:00,
2013-05-28 11:32:00,75.5,63.8,30.22,North,360,10.0,17.0,67,0.00,,---,0.00,VWS V14.01,2013-05-28 15:32:00,
2013-05-28 11:37:00,75.7,64.0,30.22,North,360,7.0,17.0,67,0.00,,---,0.00,VWS V14.01,2013-05-28 15:37:00,
2013-05-28 11:42:00,76.8,65.4,30.21,North,360,11.0,17.0,68,0.00,,---,0.00,VWS V14.01,2013-05-28 15:42:00,
2013-05-28 11:47:00,76.7,64.5,30.21,North,360,9.0,17.0,66,0.00,,---,0.00,VWS V14.01,2013-05-28 15:47:00,
2013-05-28 11:53:00,76.5,64.3,30.21,North,360,12.0,17.0,66,0.00,,---,0.00,VWS V14.01,2013-05-28 15:53:00,
2013-05-28 11:58:00,76.8,65.0,30.21,North,360,10.0,17.0,67,0.00,,---,0.00,VWS V14.01,2013-05-28 15:58:00,
2013-05-28 12:03:00,76.4,64.2,30.21,North,360,6.0,7.0,66,0.00,,---,0.00,VWS V14.01,2013-05-28 16:03:00,
2013-05-28 12:08:00,76.4,64.2,30.21,North,360,6.0,14.0,66,0.00,,---,0.00,VWS V14.01,2013-05-28 16:08:00,
2013-05-28 12:13:00,77.2,64.5,30.20,North,360,12.0,14.0,65,0.00,,---,0.00,VWS V14.01,2013-05-28 16:13:00,
2013-05-28 12:18:00,77.6,64.5,30.20,North,360,6.0,14.0,64,0.00,,---,0.00,VWS V14.01,2013-05-28 16:18:00,
2013-05-28 12:23:00,77.3,64.2,30.20,North,360,4.0,15.0,64,0.00,,---,0.00,VWS V14.01,2013-05-28 16:23:00,
2013-05-28 12:28:00,77.3,64.6,30.20,North,360,8.0,18.0,65,0.00,,---,0.00,VWS V14.01,2013-05-28 16:28:00,
2013-05-28 12:33:00,77.9,63.8,30.20,North,360,10.0,18.0,62,0.00,,---,0.00,VWS V14.01,2013-05-28 16:33:00,
2013-05-28 12:38:00,78.4,63.8,30.20,North,360,7.0,18.0,61,0.00,,---,0.00,VWS V14.01,2013-05-28 16:38:00,
2013-05-28 12:43:00,78.6,64.5,30.20,North,360,11.0,18.0,62,0.00,,---,0.00,VWS V14.01,2013-05-28 16:43:00,
2013-05-28 12:48:00,79.4,64.3,30.20,North,360,15.0,18.0,60,0.00,,---,0.00,VWS V14.01,2013-05-28 16:48:00,
2013-05-28 12:53:00,79.2,63.7,30.20,North,360,16.0,21.0,59,0.00,,---,0.00,VWS V14.01,2013-05-28 16:53:00,
2013-05-28 12:58:00,78.8,63.3,30.19,North,360,9.0,21.0,59,0.00,,---,0.00,VWS V14.01,2013-05-28 16:58:00,
2013-05-28 13:03:00,79.1,63.6,30.19,North,360,15.0,15.0,59,0.00,,---,0.00,VWS V14.01,2013-05-28 17:03:00,
2013-05-28 13:09:00,78.7,63.7,30.19,North,360,16.0,20.0,60,0.00,,---,0.00,VWS V14.01,2013-05-28 17:09:00,
2013-05-28 13:14:00,78.8,63.8,30.19,North,360,6.0,20.0,60,0.00,,---,0.00,VWS V14.01,2013-05-28 17:14:00,
2013-05-28 13:19:00,79.2,63.7,30.18,North,360,11.0,20.0,59,0.00,,---,0.00,VWS V14.01,2013-05-28 17:19:00,
2013-05-28 13:24:00,79.1,64.0,30.18,North,360,14.0,20.0,60,0.00,,---,0.00,VWS V14.01,2013-05-28 17:24:00,
2013-05-28 13:29:00,79.8,64.2,30.18,North,360,11.0,20.0,59,0.00,,---,0.00,VWS V14.01,2013-05-28 17:29:00,
2013-05-28 13:34:00,79.6,63.5,30.18,North,360,6.0,20.0,58,0.00,,---,0.00,VWS V14.01,2013-05-28 17:34:00,
2013-05-28 13:39:00,79.8,63.7,30.18,North,360,11.0,20.0,58,0.00,,---,0.00,VWS V14.01,2013-05-28 17:39:00,
2013-05-28 13:44:00,79.8,63.7,30.17,North,360,5.0,20.0,58,0.00,,---,0.00,VWS V14.01,2013-05-28 17:44:00,
2013-05-28 13:49:00,80.2,63.1,30.17,North,360,10.0,20.0,56,0.00,,---,0.00,VWS V14.01,2013-05-28 17:49:00,
2013-05-28 13:54:00,80.4,63.3,30.17,North,360,4.0,20.0,56,0.00,,---,0.00,VWS V14.01,2013-05-28 17:54:00,
2013-05-28 13:59:00,80.7,64.1,30.17,North,360,13.0,20.0,57,0.00,,---,0.00,VWS V14.01,2013-05-28 17:59:00,
2013-05-28 14:04:00,80.6,62.4,30.17,North,360,9.0,17.0,54,0.00,,---,0.00,VWS V14.01,2013-05-28 18:04:00,
2013-05-28 14:09:00,80.4,63.3,30.17,North,360,15.0,17.0,56,0.00,,---,0.00,VWS V14.01,2013-05-28 18:09:00,
2013-05-28 14:14:00,79.7,62.6,30.17,North,360,4.0,20.0,56,0.00,,---,0.00,VWS V14.01,2013-05-28 18:14:00,
2013-05-28 14:19:00,80.2,64.6,30.17,North,360,10.0,20.0,59,0.00,,---,0.00,VWS V14.01,2013-05-28 18:19:00,
2013-05-28 14:25:00,80.5,63.4,30.17,North,360,9.0,20.0,56,0.00,,---,0.00,VWS V14.01,2013-05-28 18:25:00,
2013-05-28 14:30:00,80.5,63.4,30.17,North,360,10.0,20.0,56,0.00,,---,0.00,VWS V14.01,2013-05-28 18:30:00,
2013-05-28 14:35:00,80.7,63.6,30.17,North,360,14.0,20.0,56,0.00,,---,0.00,VWS V14.01,2013-05-28 18:35:00,
2013-05-28 14:40:00,80.4,63.8,30.17,North,360,11.0,20.0,57,0.00,,---,0.00,VWS V14.01,2013-05-28 18:40:00,
2013-05-28 14:45:00,80.9,63.2,30.17,North,360,13.0,20.0,55,0.00,,---,0.00,VWS V14.01,2013-05-28 18:45:00,
2013-05-28 14:50:00,81.4,64.2,30.17,North,360,13.0,20.0,56,0.00,,---,0.00,VWS V14.01,2013-05-28 18:50:00,
2013-05-28 14:55:00,81.0,63.3,30.16,North,360,10.0,20.0,55,0.00,,---,0.00,VWS V14.01,2013-05-28 18:55:00,
2013-05-28 15:00:00,80.6,63.5,30.16,North,360,11.0,20.0,56,0.00,,---,0.00,VWS V14.01,2013-05-28 19:00:00,
2013-05-28 15:05:00,80.9,63.8,30.16,North,360,4.0,10.0,56,0.00,,---,0.00,VWS V14.01,2013-05-28 19:05:00,
2013-05-28 15:10:00,81.4,63.2,30.16,North,360,11.0,15.0,54,0.00,,---,0.00,VWS V14.01,2013-05-28 19:10:00,
2013-05-28 15:15:00,81.3,63.6,30.16,North,360,15.0,19.0,55,0.00,,---,0.00,VWS V14.01,2013-05-28 19:15:00,
2013-05-28 15:20:00,81.0,63.8,30.16,North,360,10.0,19.0,56,0.00,,---,0.00,VWS V14.01,2013-05-28 19:20:00,
2013-05-28 15:25:00,81.9,64.7,30.16,North,360,10.0,19.0,56,0.00,,---,0.00,VWS V14.01,2013-05-28 19:25:00,
2013-05-28 15:30:00,82.2,65.5,30.16,North,360,11.0,19.0,57,0.00,,---,0.00,VWS V14.01,2013-05-28 19:30:00,
2013-05-28 15:35:00,81.4,63.7,30.16,North,360,12.0,22.0,55,0.00,,---,0.00,VWS V14.01,2013-05-28 19:35:00,
2013-05-28 15:41:00,81.7,64.5,30.15,North,360,15.0,22.0,56,0.00,,---,0.00,VWS V14.01,2013-05-28 19:41:00,
2013-05-28 15:46:00,80.8,64.2,30.15,North,360,9.0,22.0,57,0.00,,---,0.00,VWS V14.01,2013-05-28 19:46:00,
2013-05-28 15:51:00,81.0,63.8,30.15,North,360,20.0,22.0,56,0.00,,---,0.00,VWS V14.01,2013-05-28 19:51:00,
2013-05-28 15:56:00,81.4,63.7,30.15,North,360,19.0,22.0,55,0.00,,---,0.00,VWS V14.01,2013-05-28 19:56:00,
2013-05-28 16:01:00,81.5,64.8,30.15,North,360,17.0,22.0,57,0.00,,---,0.00,VWS V14.01,2013-05-28 20:01:00,
2013-05-28 16:06:00,81.1,63.9,30.15,North,360,12.0,18.0,56,0.00,,---,0.00,VWS V14.01,2013-05-28 20:06:00,
2013-05-28 16:11:00,81.0,64.3,30.15,North,360,13.0,18.0,57,0.00,,---,0.00,VWS V14.01,2013-05-28 20:11:00,
2013-05-28 16:16:00,81.1,64.4,30.15,North,360,15.0,20.0,57,0.00,,---,0.00,VWS V14.01,2013-05-28 20:16:00,
2013-05-28 16:21:00,81.1,64.4,30.14,North,360,15.0,20.0,57,0.00,,---,0.00,VWS V14.01,2013-05-28 20:21:00,
2013-05-28 16:26:00,81.2,64.0,30.14,North,360,11.0,20.0,56,0.00,,---,0.00,VWS V14.01,2013-05-28 20:26:00,
2013-05-28 16:31:00,80.7,64.1,30.14,North,360,10.0,23.0,57,0.00,,---,0.00,VWS V14.01,2013-05-28 20:31:00,
2013-05-28 16:36:00,80.5,63.9,30.14,North,360,11.0,23.0,57,0.00,,---,0.00,VWS V14.01,2013-05-28 20:36:00,
2013-05-28 16:41:00,80.6,63.0,30.14,North,360,12.0,23.0,55,0.00,,---,0.00,VWS V14.01,2013-05-28 20:41:00,
2013-05-28 16:46:00,81.2,63.5,30.14,North,360,6.0,23.0,55,0.00,,---,0.00,VWS V14.01,2013-05-28 20:46:00,
2013-05-28 16:51:00,81.5,63.3,30.14,North,360,16.0,23.0,54,0.00,,---,0.00,VWS V14.01,2013-05-28 20:51:00,
2013-05-28 16:57:00,80.9,63.2,30.14,North,360,10.0,23.0,55,0.00,,---,0.00,VWS V14.01,2013-05-28 20:57:00,
2013-05-28 17:02:00,80.9,63.8,30.14,North,360,12.0,23.0,56,0.00,,---,0.00,VWS V14.01,2013-05-28 21:02:00,
2013-05-28 17:07:00,81.0,63.8,30.14,North,360,13.0,18.0,56,0.00,,---,0.00,VWS V14.01,2013-05-28 21:07:00,
2013-05-28 17:12:00,81.3,64.1,30.13,North,360,10.0,18.0,56,0.00,,---,0.00,VWS V14.01,2013-05-28 21:12:00,
2013-05-28 17:17:00,81.4,64.2,30.13,North,360,10.0,18.0,56,0.00,,---,0.00,VWS V14.01,2013-05-28 21:17:00,
2013-05-28 17:22:00,81.4,64.2,30.14,North,360,14.0,18.0,56,0.00,,---,0.00,VWS V14.01,2013-05-28 21:22:00,
2013-05-28 17:27:00,81.5,63.8,30.14,North,360,10.0,18.0,55,0.00,,---,0.00,VWS V14.01,2013-05-28 21:27:00,
2013-05-28 17:32:00,81.3,63.6,30.14,North,360,5.0,18.0,55,0.00,,---,0.00,VWS V14.01,2013-05-28 21:32:00,
2013-05-28 17:37:00,81.4,63.2,30.14,North,360,15.0,18.0,54,0.00,,---,0.00,VWS V14.01,2013-05-28 21:37:00,
2013-05-28 17:42:00,81.4,64.2,30.13,North,360,14.0,18.0,56,0.00,,---,0.00,VWS V14.01,2013-05-28 21:42:00,
2013-05-28 17:47:00,81.1,63.9,30.13,North,360,15.0,18.0,56,0.00,,---,0.00,VWS V14.01,2013-05-28 21:47:00,
2013-05-28 17:52:00,81.1,63.9,30.13,North,360,13.0,19.0,56,0.00,,---,0.00,VWS V14.01,2013-05-28 21:52:00,
2013-05-28 17:58:00,81.0,64.8,30.13,North,360,15.0,19.0,58,0.00,,---,0.00,VWS V14.01,2013-05-28 21:58:00,
2013-05-28 18:03:00,80.9,64.2,30.13,North,360,9.0,11.0,57,0.00,,---,0.00,VWS V14.01,2013-05-28 22:03:00,
2013-05-28 18:08:00,80.7,64.6,30.13,North,360,11.0,20.0,58,0.00,,---,0.00,VWS V14.01,2013-05-28 22:08:00,
2013-05-28 18:13:00,80.8,64.7,30.13,North,360,13.0,20.0,58,0.00,,---,0.00,VWS V14.01,2013-05-28 22:13:00,
2013-05-28 18:18:00,80.8,64.2,30.13,North,360,12.0,20.0,57,0.00,,---,0.00,VWS V14.01,2013-05-28 22:18:00,
2013-05-28 18:23:00,80.9,64.2,30.13,North,360,8.0,20.0,57,0.00,,---,0.00,VWS V14.01,2013-05-28 22:23:00,
2013-05-28 18:28:00,80.9,64.2,30.13,North,360,7.0,20.0,57,0.00,,---,0.00,VWS V14.01,2013-05-28 22:28:00,
2013-05-28 18:33:00,80.6,64.5,30.13,North,360,11.0,20.0,58,0.00,,---,0.00,VWS V14.01,2013-05-28 22:33:00,
2013-05-28 18:38:00,80.4,64.3,30.13,North,360,11.0,20.0,58,0.00,,---,0.00,VWS V14.01,2013-05-28 22:38:00,
2013-05-28 18:43:00,80.7,65.1,30.13,North,360,5.0,20.0,59,0.00,,---,0.00,VWS V14.01,2013-05-28 22:43:00,
2013-05-28 18:48:00,80.6,65.4,30.13,North,360,10.0,20.0,60,0.00,,---,0.00,VWS V14.01,2013-05-28 22:48:00,
2013-05-28 18:53:00,80.4,64.8,30.13,North,360,6.0,20.0,59,0.00,,---,0.00,VWS V14.01,2013-05-28 22:53:00,
2013-05-28 18:59:00,80.3,64.7,30.13,North,360,10.0,20.0,59,0.00,,---,0.00,VWS V14.01,2013-05-28 22:59:00,
2013-05-28 19:04:00,80.2,65.1,30.13,North,360,6.0,9.0,60,0.00,,---,0.00,VWS V14.01,2013-05-28 23:04:00,
2013-05-28 19:09:00,80.0,64.9,30.13,North,360,12.0,12.0,60,0.00,,---,0.00,VWS V14.01,2013-05-28 23:09:00,
2013-05-28 19:14:00,79.9,64.8,30.13,North,360,6.0,15.0,60,0.00,,---,0.00,VWS V14.01,2013-05-28 23:14:00,
2013-05-28 19:19:00,79.9,64.8,30.13,North,360,6.0,15.0,60,0.00,,---,0.00,VWS V14.01,2013-05-28 23:19:00,
2013-05-28 19:24:00,79.8,65.2,30.13,North,360,5.0,15.0,61,0.00,,---,0.00,VWS V14.01,2013-05-28 23:24:00,
2013-05-28 19:29:00,79.7,65.1,30.13,North,360,9.0,15.0,61,0.00,,---,0.00,VWS V14.01,2013-05-28 23:29:00,
2013-05-28 19:34:00,79.4,65.3,30.13,North,360,10.0,17.0,62,0.00,,---,0.00,VWS V14.01,2013-05-28 23:34:00,
2013-05-28 19:39:00,79.2,65.1,30.13,North,360,9.0,17.0,62,0.00,,---,0.00,VWS V14.01,2013-05-28 23:39:00,
2013-05-28 19:44:00,79.0,65.3,30.13,North,360,10.0,17.0,63,0.00,,---,0.00,VWS V14.01,2013-05-28 23:44:00,
2013-05-28 19:49:00,78.8,65.2,30.13,North,360,14.0,17.0,63,0.00,,---,0.00,VWS V14.01,2013-05-28 23:49:00,
2013-05-28 19:54:00,78.5,64.9,30.13,North,360,6.0,17.0,63,0.00,,---,0.00,VWS V14.01,2013-05-28 23:54:00,
2013-05-28 19:59:00,78.4,65.2,30.13,North,360,10.0,17.0,64,0.00,,---,0.00,VWS V14.01,2013-05-28 23:59:00,
2013-05-28 20:04:00,78.1,65.4,30.13,North,360,9.0,10.0,65,0.00,,---,0.00,VWS V14.01,2013-05-29 00:04:00,
2013-05-28 20:09:00,77.8,65.5,30.13,North,360,6.0,11.0,66,0.00,,---,0.00,VWS V14.01,2013-05-29 00:09:00,
2013-05-28 20:14:00,77.5,65.3,30.13,North,360,7.0,13.0,66,0.00,,---,0.00,VWS V14.01,2013-05-29 00:14:00,
2013-05-28 20:19:00,77.3,65.5,30.13,North,360,9.0,13.0,67,0.00,,---,0.00,VWS V14.01,2013-05-29 00:19:00,
2013-05-28 20:25:00,77.1,65.3,30.13,North,360,5.0,13.0,67,0.00,,---,0.00,VWS V14.01,2013-05-29 00:25:00,
2013-05-28 20:30:00,76.9,65.5,30.13,North,360,9.0,13.0,68,0.00,,---,0.00,VWS V14.01,2013-05-29 00:30:00,
2013-05-28 20:35:00,76.7,65.3,30.13,North,360,6.0,13.0,68,0.00,,---,0.00,VWS V14.01,2013-05-29 00:35:00,
2013-05-28 20:40:00,76.4,65.5,30.13,North,360,5.0,13.0,69,0.00,,---,0.00,VWS V14.01,2013-05-29 00:40:00,
2013-05-28 20:45:00,76.2,65.3,30.12,North,360,4.0,13.0,69,0.00,,---,0.00,VWS V14.01,2013-05-29 00:45:00,
2013-05-28 20:50:00,76.0,65.5,30.12,North,360,8.0,13.0,70,0.00,,---,0.00,VWS V14.01,2013-05-29 00:50:00,
2013-05-28 20:55:00,75.7,65.2,30.12,North,360,10.0,13.0,70,0.00,,---,0.00,VWS V14.01,2013-05-29 00:55:00,
2013-05-28 21:00:00,75.5,65.0,30.12,North,360,9.0,13.0,70,0.00,,---,0.00,VWS V14.01,2013-05-29 01:00:00,
2013-05-28 21:05:00,75.3,65.3,30.12,North,360,12.0,12.0,71,0.00,,---,0.00,VWS V14.01,2013-05-29 01:05:00,
2013-05-28 21:10:00,75.1,65.1,30.12,North,360,4.0,12.0,71,0.00,,---,0.00,VWS V14.01,2013-05-29 01:10:00,
2013-05-28 21:15:00,74.9,65.3,30.12,North,360,6.0,12.0,72,0.00,,---,0.00,VWS V14.01,2013-05-29 01:15:00,
2013-05-28 21:20:00,74.7,65.1,30.13,North,360,5.0,12.0,72,0.00,,---,0.00,VWS V14.01,2013-05-29 01:20:00,
2013-05-28 21:25:00,74.5,64.9,30.13,North,360,4.0,12.0,72,0.00,,---,0.00,VWS V14.01,2013-05-29 01:25:00,
2013-05-28 21:30:00,74.4,65.2,30.13,North,360,7.0,12.0,73,0.00,,---,0.00,VWS V14.01,2013-05-29 01:30:00,
2013-05-28 21:36:00,74.3,65.1,30.13,North,360,4.0,12.0,73,0.00,,---,0.00,VWS V14.01,2013-05-29 01:36:00,
2013-05-28 21:41:00,74.1,64.9,30.13,North,360,5.0,12.0,73,0.00,,---,0.00,VWS V14.01,2013-05-29 01:41:00,
2013-05-28 21:46:00,73.9,64.7,30.13,North,360,5.0,12.0,73,0.00,,---,0.00,VWS V14.01,2013-05-29 01:46:00,
2013-05-28 21:51:00,73.7,64.9,30.14,North,360,4.0,12.0,74,0.00,,---,0.00,VWS V14.01,2013-05-29 01:51:00,
2013-05-28 21:56:00,73.6,64.8,30.14,North,360,4.0,12.0,74,0.00,,---,0.00,VWS V14.01,2013-05-29 01:56:00,
2013-05-28 22:01:00,73.6,64.8,30.14,North,360,4.0,12.0,74,0.00,,---,0.00,VWS V14.01,2013-05-29 02:01:00,
2013-05-28 22:06:00,73.4,65.0,30.14,North,360,5.0,7.0,75,0.00,,---,0.00,VWS V14.01,2013-05-29 02:06:00,
2013-05-28 22:11:00,73.2,64.8,30.14,North,360,6.0,7.0,75,0.00,,---,0.00,VWS V14.01,2013-05-29 02:11:00,
2013-05-28 22:16:00,73.0,64.6,30.14,North,360,6.0,8.0,75,0.00,,---,0.00,VWS V14.01,2013-05-29 02:16:00,
2013-05-28 22:21:00,72.8,64.8,30.14,North,360,5.0,8.0,76,0.00,,---,0.00,VWS V14.01,2013-05-29 02:21:00,
2013-05-28 22:26:00,72.7,64.7,30.14,North,360,3.0,8.0,76,0.00,,---,0.00,VWS V14.01,2013-05-29 02:26:00,
2013-05-28 22:31:00,72.6,64.6,30.15,North,360,5.0,8.0,76,0.00,,---,0.00,VWS V14.01,2013-05-29 02:31:00,
2013-05-28 22:36:00,72.4,64.4,30.15,North,360,4.0,8.0,76,0.00,,---,0.00,VWS V14.01,2013-05-29 02:36:00,
2013-05-28 22:42:00,72.4,64.8,30.15,North,360,4.0,8.0,77,0.00,,---,0.00,VWS V14.01,2013-05-29 02:42:00,
2013-05-28 22:47:00,72.2,64.6,30.15,North,360,5.0,8.0,77,0.00,,---,0.00,VWS V14.01,2013-05-29 02:47:00,
2013-05-28 22:52:00,72.2,64.6,30.15,North,360,6.0,9.0,77,0.00,,---,0.00,VWS V14.01,2013-05-29 02:52:00,
2013-05-28 22:57:00,72.1,64.5,30.15,North,360,5.0,10.0,77,0.00,,---,0.00,VWS V14.01,2013-05-29 02:57:00,
2013-05-28 23:02:00,71.8,64.6,30.15,North,360,6.0,10.0,78,0.00,,---,0.00,VWS V14.01,2013-05-29 03:02:00,
2013-05-28 23:07:00,71.6,64.4,30.15,North,360,6.0,10.0,78,0.00,,---,0.00,VWS V14.01,2013-05-29 03:07:00,
2013-05-28 23:12:00,71.4,64.6,30.15,North,360,10.0,11.0,79,0.00,,---,0.00,VWS V14.01,2013-05-29 03:12:00,
2013-05-28 23:17:00,71.3,64.5,30.14,North,360,10.0,13.0,79,0.00,,---,0.00,VWS V14.01,2013-05-29 03:17:00,
2013-05-28 23:22:00,71.3,64.5,30.15,North,360,6.0,13.0,79,0.00,,---,0.00,VWS V14.01,2013-05-29 03:22:00,
2013-05-28 23:27:00,71.5,64.7,30.15,North,360,6.0,16.0,79,0.00,,---,0.00,VWS V14.01,2013-05-29 03:27:00,
2013-05-28 23:32:00,71.5,64.7,30.15,North,360,9.0,16.0,79,0.00,,---,0.00,VWS V14.01,2013-05-29 03:32:00,
2013-05-28 23:38:00,71.5,64.7,30.15,North,360,9.0,16.0,79,0.00,,---,0.00,VWS V14.01,2013-05-29 03:38:00,
2013-05-28 23:43:00,71.5,65.0,30.15,North,360,11.0,16.0,80,0.00,,---,0.00,VWS V14.01,2013-05-29 03:43:00,
2013-05-28 23:47:00,71.5,65.0,30.15,North,360,6.0,16.0,80,0.00,,---,0.00,VWS V14.01,2013-05-29 03:47:00,
2013-05-28 23:53:00,71.4,64.9,30.15,North,360,7.0,16.0,80,0.00,,---,0.00,VWS V14.01,2013-05-29 03:53:00,
2013-05-28 23:58:00,71.3,65.2,30.15,North,360,5.0,16.0,81,0.00,,---,0.00,VWS V14.01,2013-05-29 03:58:00,